Temp
74 74 75 76 77 77 77 76 76 75 77 79 77 78 77 78 80 79 79 79 80 80 80 79 78 78 79 81 79 78 78 77 76 75 73 70 67 68 76 78 78 79 80 77 77 75 72 67 63 74 81 79 80 81 84 84 86 83 82 83 86 82 82
75 74 75 76 76 76 74 75 75 76 76 77 79 79 80 82 82 80 80 79 78 79 80 80 79 80 78 78 77 76 76 77 77 77 75 70 68 72 76 76 78 79 79 77 77 77 74 72 72 72 75 78 79 80 80 82 84 85 84 84 86 86 85
76 75 75 73 73 72 71 71 72 73 75 74 75 78 79 82 82 82 81 80 79 79 80 80 80 78 78 78 78 76 76 75 76 77 75 72 72 73 75 74 74 75 75 76 76 77 75 74 72 74 76 74 73 76 79 79 82 86 87 84 84 86 85
75 75 74 74 74 73 72 72 71 71 72 73 74 74 76 80 81 81 80 80 79 78 79 80 79 79 78 78 79 77 76 76 76 75 74 76 77 76 74 74 73 73 72 72 73 75 74 73 74 76 77 78 76 74 78 80 81 85 86 84 84 84 83
76 75 74 74 75 74 75 75 74 73 73 73 74 75 75 77 77 78 78 78 78 77 78 79 80 80 79 79 79 78 77 77 77 76 76 76 76 76 76 77 76 74 74 75 77 76 75 75 74 74 77 78 79 81 79 76 82 84 84 85 85 84 84
77 77 76 76 76 75 76 76 76 74 75 74 74 74 75 75 76 76 77 77 77 77 79 80 79 80 79 78 78 77 77 77 77 76 75 75 76 76 77 77 75 72 69 76 79 78 77 77 76 74 76 79 74 77 81 81 78 83 85 85 87 85 87
77 77 77 77 76 76 77 77 77 77 77 75 75 74 76 77 77 77 77 77 79 80 79 79 79 79 79 79 78 77 77 77 78 77 77 76 76 77 78 77 77 74 75 78 78 78 77 76 76 75 75 77 77 78 82 83 83 80 82 86 87 86 86
78 78 79 79 78 77 77 77 77 78 78 78 77 76 78 77 78 78 77 77 78 78 78 78 78 78 78 77 78 77 78 78 78 77 78 77 77 76 76 77 77 77 77 78 78 78 80 78 77 77 76 73 74 76 76 82 81 80 81 84 84 82 85
79 79 80 80 80 79 78 78 78 78 79 79 79 79 78 78 78 78 77 77 77 77 78 78 78 77 77 76 76 76 77 79 77 77 78 77 77 76 76 76 76 77 77 79 79 79 79 79 79 78 77 76 72 72 76 75 77 78 83 81 83 82 83
78 78 78 79 79 79 79 79 79 79 79 79 80 79 78 78 78 78 78 77 76 77 78 77 77 77 77 75 75 75 76 77 77 77 77 77 77 77 76 76 76 77 77 78 78 78 79 79 79 79 80 77 76 73 72 73 74 75 79 81 80 80 85
78 78 79 79 79 79 79 79 79 79 78 78 79 79 79 78 77 77 78 78 78 78 78 78 78 78 76 76 76 76 77 77 77 77 77 77 77 77 76 76 77 78 79 77 78 78 78 78 78 79 80 80 79 75 74 72 73 78 78 80 81 81 82
79 79 80 80 79 79 78 79 79 79 79 79 78 78 78 79 78 78 78 79 79 78 78 78 79 78 77 75 76 76 76 77 77 77 77 77 77 77 76 76 77 77 78 77 78 78 77 77 77 79 79 79 79 77 75 75 73 77 79 76 79 82 80
80 80 80 79 79 79 79 79 80 79 79 80 79 79 79 79 79 78 79 79 78 79 79 79 79 79 77 77 76 76 76 77 77 78 78 78 79 78 77 77 77 77 78 78 78 78 78 78 78 79 79 78 78 77 76 75 73 74 78 78 79 80 80
79 80 80 79 79 79 79 80 80 79 79 78 79 79 79 79 81 80 79 79 80 79 79 79 79 78 77 77 76 76 77 77 77 78 79 77 78 78 78 77 78 79 79 77 79 79 79 79 78 78 79 79 79 79 77 75 74 75 78 79 79 79 80
80 80 79 79 78 79 80 80 80 80 78 78 79 79 81 80 80 80 81 81 80 81 80 81 79 78 77 76 76 76 77 77 77 78 78 77 77 77 77 78 79 80 80 79 78 80 80 79 79 78 79 79 79 78 77 76 76 74 74 77 77 80 80
79 79 78 78 78 79 80 79 80 78 79 79 79 80 81 81 81 81 81 80 81 81 81 80 78 78 77 78 78 77 77 78 77 77 77 78 78 78 77 77 78 79 78 77 78 78 80 79 79 79 78 78 77 77 78 77 76 74 74 75 77 78 79
78 78 77 78 78 79 80 79 79 78 79 79 79 79 82 83 82 81 81 81 81 81 80 79 78 78 78 79 79 78 78 78 78 78 78 79 79 78 77 77 78 79 78 77 78 78 80 79 78 79 78 78 77 76 77 77 76 75 75 73 76 77 78
78 77 77 78 78 79 79 79 79 79 78 78 80 79 79 82 82 82 80 82 82 81 81 80 79 77 77 77 78 79 79 79 78 79 78 78 78 79 78 77 78 80 79 77 77 78 80 78 79 78 77 78 77 77 77 76 76 76 74 73 74 77 76
78 78 78 78 78 78 78 78 79 78 79 79 79 79 79 80 80 81 82 82 82 82 82 82 81 79 79 77 78 78 78 79 78 80 79 79 79 79 78 79 80 80 79 77 77 78 79 77 77 76 76 76 77 77 75 76 76 76 75 75 74 74 75
79 79 78 78 78 78 78 78 78 78 79 80 80 79 80 80 80 81 83 82 82 82 81 81 81 79 79 77 79 79 78 78 78 78 79 79 79 79 80 80 80 80 79 79 78 78 77 76 76 76 76 76 77 76 75 75 76 74 74 74 74 74 74
79 80 80 80 79 78 78 78 79 79 79 78 79 81 80 80 80 80 81 82 82 82 81 81 81 81 81 80 79 78 77 76 76 76 76 77 78 80 79 80 80 80 80 80 79 79 78 77 77 76 77 77 76 75 75 75 75 75 74 73 74 74 74
80 80 80 80 79 79 79 79 79 79 79 79 79 81 81 81 80 80 81 81 82 81 80 80 80 80 80 80 80 78 77 77 76 75 73 72 72 76 78 79 79 80 79 78 74 74 75 75 78 76 76 77 76 75 75 75 75 75 75 74 73 74 73
80 80 80 80 80 79 80 79 79 80 80 80 80 81 81 81 81 81 80 82 81 80 79 79 76 68 70 80 80 78 76 75 74 71 69 70 71 75 78 78 77 75 74 73 70 65 61 63 67 74 78 77 75 75 75 74 74 75 74 73 73 73 72
81 81 80 79 79 80 80 80 79 79 80 80 79 80 80 80 80 80 81 80 80 79 79 79 63 55 55 57 74 78 77 76 75 74 72 70 68 73 77 78 78 75 72 71 71 59 58 57 58 60 64 69 73 76 74 73 73 74 73 73 74 73 72
81 81 80 80 81 81 80 80 79 79 79 78 79 79 78 79 79 79 79 80 78 78 79 67 51 51 50 50 59 76 78 76 75 74 73 73 74 73 73 78 78 79 76 77 78 74 64 56 53 55 56 59 60 63 62 70 74 73 72 73 72 73 72
82 81 81 81 81 81 80 79 79 78 78 79 79 78 79 78 78 79 78 79 78 78 80 56 49 49 50 48 49 64 79 77 73 73 74 74 74 72 73 78 77 77 79 72 75 78 77 72 58 53 56 56 58 56 54 51 55 69 76 72 72 72 73
81 81 81 81 81 81 80 79 78 80 80 79 77 77 77 77 78 78 78 79 78 79 80 59 49 49 49 46 47 54 77 77 77 77 75 73 70 73 77 77 77 76 77 76 76 77 77 76 73 70 70 72 74 69 58 50 51 49 64 73 73 72 73
81 81 81 81 80 81 80 80 80 80 79 79 77 77 77 77 78 78 78 78 78 77 79 52 48 46 47 46 45 51 74 76 77 77 77 77 78 77 78 78 77 78 77 77 77 76 76 76 75 73 73 72 74 74 73 73 72 74 73 74 75 74 74
81 82 81 80 79 79 79 78 78 79 79 78 79 79 79 78 77 77 78 78 78 76 75 46 47 45 45 46 44 65 72 74 76 77 77 77 78 78 78 78 78 77 78 77 70 58 66 77 75 74 72 73 74 74 74 72 63 65 73 75 76 76 73
80 80 81 80 79 78 78 77 78 79 78 78 77 77 78 79 79 79 79 79 77 76 76 53 46 45 45 44 50 71 73 75 76 76 77 77 78 78 78 79 79 78 78 78 63 51 53 63 76 74 73 72 73 74 74 74 55 52 48 45 42 42 41
80 80 80 80 79 78 78 79 78 79 78 77 76 78 78 79 80 79 78 78 78 76 78 61 45 46 45 43 57 72 75 75 75 76 77 77 78 79 78 72 75 78 77 78 52 51 50 63 74 74 73 72 72 72 73 75 72 64 45 46 44 45 44
79 78 78 79 78 76 76 77 78 79 78 79 78 78 78 78 78 79 80 79 74 75 78 64 45 46 44 44 56 73 76 77 75 76 76 77 77 78 78 73 67 71 76 69 47 50 49 63 74 74 74 73 71 72 73 75 73 71 69 68 66 62 58
77 76 77 76 76 76 77 77 78 77 77 79 79 79 79 78 77 78 79 78 76 75 76 72 56 44 45 44 49 71 78 77 75 75 76 77 77 77 77 78 69 52 51 47 45 46 47 52 71 75 74 73 72 71 75 75 75 75 73 72 72 71 71
77 76 77 75 76 77 78 78 77 76 75 76 78 78 77 77 77 77 78 78 77 76 76 74 60 43 44 44 46 55 77 77 77 77 77 77 78 78 78 78 80 58 48 47 44 44 47 46 55 73 74 73 75 72 70 74 73 70 73 73 73 72 72
78 76 75 76 75 75 77 78 77 76 74 73 74 75 76 76 76 77 78 76 77 77 76 71 68 45 44 43 46 46 70 78 77 78 75 77 77 77 78 79 82 63 46 47 44 44 44 46 45 66 72 60 57 54 72 74 75 73 72 73 73 73 73
75 77 75 75 73 73 75 76 75 75 73 72 72 72 73 72 72 74 75 76 76 76 76 72 57 56 44 43 43 45 48 64 54 72 76 77 76 77 80 78 76 51 45 45 45 43 44 44 47 61 54 52 53 48 60 74 74 73 72 73 73 73 73
76 76 74 72 72 73 73 74 74 74 74 74 72 71 70 70 70 71 71 71 72 74 74 73 58 53 52 41 42 44 45 46 53 71 74 77 78 77 79 77 68 44 44 43 44 44 44 45 59 51 47 48 47 50 68 69 70 71 71 71 71 71 70
MSLP
1016.06 1016.26 1016.30 1016.26 1016.22 1016.30 1016.54 1016.66 1016.66 1016.78 1016.78 1016.74 1016.98 1017.02 1017.06 1016.94 1016.86 1017.02 1017.02 1017.06 1017.14 1017.18 1017.30 1017.50 1017.66 1017.70 1017.66 1017.54 1017.74 1017.90 1018.10 1018.22 1018.46 1018.62 1018.90 1019.30 1019.54 1019.66 1018.50 1018.26 1018.26 1018.10 1018.06 1018.22 1018.30 1018.70 1019.10 1020.38 1021.06 1018.98 1018.06 1018.22 1018.10 1017.98 1017.82 1017.82 1017.54 1017.82 1017.98 1017.82 1017.46 1017.62 1017.66
1015.70 1015.98 1016.02 1016.02 1016.26 1016.30 1016.62 1016.54 1016.58 1016.58 1016.70 1016.66 1016.58 1016.66 1016.66 1016.50 1016.54 1016.70 1016.82 1016.94 1017.14 1017.14 1017.14 1017.18 1017.34 1017.42 1017.66 1017.78 1017.94 1018.06 1018.14 1018.14 1018.18 1018.22 1018.50 1019.26 1019.66 1019.06 1018.42 1018.54 1018.30 1018.26 1018.26 1018.42 1018.38 1018.38 1018.90 1019.30 1019.02 1019.22 1018.98 1018.30 1018.26 1018.26 1018.18 1017.90 1017.70 1017.50 1017.58 1017.58 1017.38 1017.22 1017.34
1015.54 1015.78 1015.90 1016.30 1016.46 1016.50 1016.82 1016.86 1016.78 1016.74 1016.66 1016.78 1016.78 1016.66 1016.58 1016.38 1016.34 1016.46 1016.62 1016.74 1016.86 1016.94 1016.94 1016.98 1017.14 1017.38 1017.54 1017.66 1017.74 1017.90 1017.94 1018.18 1018.10 1018.18 1018.34 1018.78 1018.82 1018.46 1018.34 1018.66 1018.82 1018.82 1018.78 1018.74 1018.66 1018.54 1018.74 1018.82 1019.26 1018.98 1018.66 1019.02 1019.38 1018.86 1018.30 1018.26 1017.90 1017.42 1017.22 1017.46 1017.46 1017.26 1017.34
1015.42 1015.66 1015.94 1016.18 1016.22 1016.42 1016.58 1016.62 1016.78 1016.78 1016.78 1016.86 1016.82 1016.82 1016.70 1016.42 1016.30 1016.26 1016.46 1016.58 1016.66 1016.78 1016.90 1016.90 1017.02 1017.14 1017.26 1017.38 1017.46 1017.66 1017.90 1018.10 1018.14 1018.26 1018.26 1018.14 1018.10 1018.22 1018.50 1018.70 1018.98 1019.02 1019.18 1019.30 1019.10 1018.86 1018.90 1019.14 1019.14 1018.70 1018.46 1018.42 1018.78 1019.18 1018.46 1018.06 1017.86 1017.34 1017.26 1017.38 1017.50 1017.62 1017.62
1015.06 1015.38 1015.62 1015.78 1015.78 1015.90 1015.90 1016.02 1016.18 1016.46 1016.62 1016.62 1016.62 1016.66 1016.66 1016.46 1016.46 1016.50 1016.50 1016.58 1016.74 1016.82 1016.82 1016.74 1016.74 1016.78 1016.90 1017.06 1017.26 1017.50 1017.70 1017.82 1017.94 1018.02 1018.02 1018.14 1018.18 1018.14 1018.26 1018.34 1018.50 1018.78 1018.82 1018.70 1018.38 1018.62 1018.78 1018.78 1018.98 1019.10 1018.78 1018.42 1018.34 1018.26 1018.14 1018.38 1017.70 1017.62 1017.46 1017.38 1017.42 1017.62 1017.58
1014.70 1014.94 1015.14 1015.26 1015.22 1015.42 1015.46 1015.66 1015.90 1016.18 1016.14 1016.34 1016.34 1016.46 1016.42 1016.50 1016.50 1016.66 1016.62 1016.62 1016.66 1016.62 1016.58 1016.58 1016.66 1016.66 1016.82 1017.02 1017.22 1017.42 1017.50 1017.74 1017.78 1017.86 1018.02 1018.06 1018.02 1018.14 1018.18 1018.18 1018.50 1018.90 1019.58 1018.38 1018.06 1018.34 1018.34 1018.42 1018.66 1019.14 1018.66 1018.34 1019.10 1018.70 1018.10 1017.94 1018.26 1017.54 1017.38 1017.42 1017.34 1017.42 1017.26
1014.46 1014.58 1014.66 1014.78 1014.86 1015.06 1015.22 1015.42 1015.46 1015.50 1015.66 1015.90 1016.06 1016.26 1016.06 1016.10 1016.22 1016.22 1016.26 1016.30 1016.22 1016.30 1016.38 1016.46 1016.54 1016.66 1016.74 1016.94 1017.14 1017.38 1017.50 1017.50 1017.46 1017.66 1017.74 1017.82 1017.86 1017.86 1017.86 1018.10 1018.18 1018.50 1018.34 1017.86 1018.06 1018.18 1018.34 1018.54 1018.70 1018.82 1018.82 1018.54 1018.42 1018.46 1017.82 1017.74 1017.62 1018.06 1017.86 1017.30 1017.14 1017.22 1017.26
1014.02 1014.14 1014.22 1014.22 1014.50 1014.86 1014.94 1015.06 1015.10 1015.06 1015.26 1015.34 1015.46 1015.54 1015.54 1015.66 1015.74 1015.82 1015.94 1016.06 1016.10 1016.18 1016.26 1016.38 1016.46 1016.58 1016.74 1016.94 1017.06 1017.18 1017.22 1017.26 1017.38 1017.46 1017.54 1017.66 1017.78 1017.86 1017.94 1017.90 1017.98 1017.98 1017.90 1017.86 1017.90 1018.02 1017.86 1018.06 1018.26 1018.38 1018.66 1019.26 1018.94 1018.66 1018.58 1017.66 1017.82 1018.06 1018.02 1017.58 1017.46 1017.70 1017.46
1013.62 1013.70 1013.86 1013.94 1014.14 1014.30 1014.54 1014.66 1014.78 1014.82 1014.82 1014.86 1014.94 1015.06 1015.30 1015.42 1015.66 1015.74 1015.86 1015.94 1015.98 1016.06 1016.14 1016.26 1016.42 1016.54 1016.74 1016.98 1017.10 1017.14 1017.26 1017.06 1017.30 1017.42 1017.42 1017.50 1017.62 1017.74 1017.94 1017.90 1017.98 1017.90 1017.74 1017.70 1017.70 1017.70 1017.66 1017.66 1017.86 1017.94 1018.18 1018.58 1019.26 1019.42 1018.66 1018.86 1018.42 1018.46 1017.70 1017.98 1017.74 1017.74 1017.58
1013.50 1013.66 1013.74 1013.86 1013.98 1013.98 1014.10 1014.26 1014.38 1014.46 1014.54 1014.62 1014.70 1014.78 1015.06 1015.26 1015.42 1015.54 1015.66 1015.78 1015.86 1015.90 1016.02 1016.18 1016.34 1016.50 1016.66 1016.90 1017.06 1017.10 1017.18 1017.10 1017.18 1017.38 1017.34 1017.42 1017.50 1017.62 1017.78 1017.90 1017.86 1017.70 1017.66 1017.54 1017.54 1017.54 1017.58 1017.62 1017.62 1017.70 1017.70 1018.10 1018.38 1019.10 1019.26 1019.06 1019.02 1018.86 1018.30 1017.82 1018.18 1017.94 1017.42
1013.18 1013.38 1013.42 1013.54 1013.58 1013.74 1013.90 1014.02 1014.10 1014.26 1014.42 1014.46 1014.54 1014.58 1014.74 1015.06 1015.22 1015.38 1015.50 1015.54 1015.66 1015.74 1015.90 1016.06 1016.22 1016.38 1016.62 1016.82 1016.86 1016.90 1016.86 1016.94 1017.06 1017.06 1017.14 1017.22 1017.38 1017.50 1017.62 1017.74 1017.70 1017.66 1017.46 1017.62 1017.62 1017.54 1017.58 1017.70 1017.82 1017.74 1017.70 1017.62 1017.86 1018.58 1018.78 1019.22 1018.94 1018.18 1018.30 1017.90 1017.78 1018.06 1017.74
1012.86 1012.98 1012.98 1013.06 1013.26 1013.58 1013.78 1013.78 1013.86 1013.90 1014.06 1014.18 1014.34 1014.54 1014.70 1014.78 1014.98 1015.18 1015.22 1015.30 1015.38 1015.54 1015.66 1015.82 1015.98 1016.14 1016.42 1016.70 1016.78 1016.86 1016.82 1016.78 1016.82 1016.86 1016.78 1016.94 1017.14 1017.34 1017.50 1017.70 1017.62 1017.62 1017.54 1017.70 1017.66 1017.62 1017.66 1017.86 1017.90 1017.82 1017.82 1017.74 1017.82 1018.14 1018.50 1018.66 1019.02 1018.22 1017.90 1018.46 1018.02 1017.74 1017.90
1012.38 1012.50 1012.62 1012.86 1013.10 1013.26 1013.34 1013.46 1013.54 1013.74 1013.82 1013.90 1014.06 1014.18 1014.38 1014.54 1014.66 1014.90 1014.94 1015.02 1015.22 1015.30 1015.46 1015.54 1015.70 1015.86 1016.10 1016.34 1016.50 1016.58 1016.58 1016.62 1016.54 1016.50 1016.46 1016.58 1016.70 1016.86 1017.06 1017.38 1017.42 1017.42 1017.46 1017.58 1017.62 1017.62 1017.70 1017.66 1017.66 1017.70 1017.62 1017.78 1017.86 1017.90 1018.14 1018.50 1018.86 1018.74 1017.98 1018.14 1018.06 1017.90 1017.78
1012.06 1012.10 1012.34 1012.50 1012.78 1012.86 1012.94 1013.06 1013.14 1013.30 1013.50 1013.78 1013.82 1013.98 1014.14 1014.26 1014.26 1014.42 1014.62 1014.78 1014.86 1015.06 1015.18 1015.34 1015.42 1015.66 1015.90 1016.10 1016.18 1016.30 1016.34 1016.38 1016.38 1016.26 1016.26 1016.46 1016.50 1016.62 1016.82 1016.98 1017.02 1017.02 1017.06 1017.38 1017.34 1017.42 1017.50 1017.54 1017.70 1017.74 1017.66 1017.66 1017.78 1017.74 1018.02 1018.38 1018.66 1018.42 1017.90 1017.74 1017.86 1017.94 1017.70
1011.62 1011.78 1012.10 1012.26 1012.46 1012.50 1012.58 1012.70 1012.82 1013.06 1013.34 1013.42 1013.54 1013.70 1013.74 1013.82 1013.98 1014.10 1014.30 1014.42 1014.58 1014.62 1014.82 1014.94 1015.14 1015.38 1015.66 1015.94 1016.02 1016.06 1016.10 1016.18 1016.26 1016.22 1016.14 1016.38 1016.46 1016.46 1016.54 1016.70 1016.70 1016.70 1016.74 1017.10 1017.22 1017.22 1017.22 1017.38 1017.54 1017.70 1017.62 1017.58 1017.62 1017.74 1017.74 1018.10 1018.18 1018.42 1018.46 1017.94 1017.94 1017.62 1017.74
1011.30 1011.58 1011.82 1011.98 1012.18 1012.22 1012.26 1012.42 1012.54 1012.90 1013.10 1013.22 1013.26 1013.38 1013.30 1013.42 1013.66 1013.82 1013.98 1014.14 1014.26 1014.34 1014.46 1014.66 1014.82 1015.06 1015.34 1015.54 1015.70 1015.82 1015.82 1015.86 1016.02 1016.06 1016.10 1016.14 1016.22 1016.30 1016.46 1016.54 1016.50 1016.42 1016.62 1016.98 1017.06 1017.02 1016.86 1017.14 1017.22 1017.38 1017.46 1017.38 1017.62 1017.66 1017.66 1017.82 1018.10 1018.34 1018.42 1018.18 1017.90 1017.82 1017.78
1011.06 1011.30 1011.62 1011.66 1011.86 1011.90 1011.94 1012.18 1012.30 1012.54 1012.66 1012.82 1013.06 1013.14 1013.02 1013.06 1013.30 1013.46 1013.62 1013.78 1013.94 1014.14 1014.30 1014.50 1014.74 1014.86 1014.98 1015.06 1015.22 1015.38 1015.54 1015.62 1015.70 1015.70 1015.78 1015.86 1015.94 1016.10 1016.30 1016.42 1016.38 1016.30 1016.46 1016.78 1016.82 1016.74 1016.70 1016.86 1017.06 1017.06 1017.22 1017.34 1017.54 1017.70 1017.66 1017.74 1017.86 1018.18 1018.22 1018.50 1017.98 1017.98 1017.82
1010.74 1010.94 1011.14 1011.22 1011.46 1011.62 1011.78 1011.94 1012.06 1012.26 1012.42 1012.66 1012.74 1012.94 1012.98 1012.86 1013.02 1013.14 1013.34 1013.42 1013.54 1013.74 1013.98 1014.18 1014.46 1014.70 1014.82 1014.86 1014.94 1014.98 1015.14 1015.26 1015.38 1015.38 1015.42 1015.54 1015.62 1015.70 1015.90 1016.14 1016.14 1016.02 1016.22 1016.58 1016.62 1016.58 1016.50 1016.78 1016.78 1016.94 1017.22 1017.26 1017.38 1017.42 1017.54 1017.66 1017.74 1017.82 1018.14 1018.38 1018.18 1017.94 1018.10
1010.34 1010.54 1010.78 1010.98 1011.22 1011.42 1011.58 1011.74 1011.90 1011.98 1012.14 1012.42 1012.54 1012.66 1012.82 1012.82 1012.86 1012.94 1012.98 1013.10 1013.14 1013.30 1013.46 1013.66 1013.94 1014.26 1014.42 1014.70 1014.70 1014.78 1014.86 1014.98 1015.10 1015.10 1015.18 1015.30 1015.30 1015.38 1015.58 1015.74 1015.74 1015.74 1016.06 1016.38 1016.38 1016.38 1016.38 1016.70 1016.78 1016.98 1017.18 1017.22 1017.22 1017.34 1017.66 1017.70 1017.66 1017.78 1017.98 1018.06 1018.14 1018.18 1018.06
1009.90 1010.14 1010.42 1010.66 1010.90 1011.14 1011.38 1011.50 1011.62 1011.82 1011.90 1012.06 1012.22 1012.46 1012.50 1012.58 1012.62 1012.70 1012.70 1012.78 1012.94 1012.98 1013.18 1013.34 1013.50 1013.78 1014.14 1014.46 1014.38 1014.54 1014.74 1014.82 1014.98 1015.06 1015.06 1015.10 1015.10 1015.18 1015.26 1015.34 1015.42 1015.50 1015.78 1015.90 1016.10 1016.22 1016.34 1016.58 1016.70 1016.86 1016.98 1017.06 1017.06 1017.34 1017.66 1017.74 1017.70 1017.90 1018.02 1018.10 1018.02 1018.10 1018.14
1009.58 1009.70 1009.90 1010.26 1010.62 1010.82 1010.98 1011.14 1011.26 1011.38 1011.58 1011.86 1011.98 1012.02 1012.18 1012.30 1012.38 1012.50 1012.50 1012.54 1012.58 1012.70 1012.94 1013.10 1013.18 1013.30 1013.50 1013.70 1014.02 1014.34 1014.54 1014.86 1014.98 1015.10 1015.22 1015.18 1015.14 1015.06 1015.10 1015.10 1015.22 1015.34 1015.50 1015.58 1015.74 1015.86 1016.06 1016.34 1016.50 1016.74 1016.70 1016.82 1017.02 1017.38 1017.58 1017.58 1017.74 1017.82 1017.94 1018.10 1018.06 1017.94 1017.98
1009.18 1009.42 1009.66 1009.94 1010.30 1010.46 1010.58 1010.74 1010.98 1011.14 1011.34 1011.50 1011.58 1011.62 1011.74 1011.90 1012.14 1012.30 1012.30 1012.34 1012.38 1012.58 1012.78 1012.86 1012.86 1013.06 1013.26 1013.46 1013.66 1014.10 1014.30 1014.58 1014.78 1014.98 1015.30 1015.58 1015.86 1015.42 1015.06 1015.06 1015.10 1015.14 1015.26 1015.42 1015.54 1015.66 1015.78 1015.90 1016.26 1016.62 1016.66 1016.74 1017.06 1017.34 1017.42 1017.46 1017.62 1017.70 1017.70 1017.82 1017.94 1017.90 1018.02
1008.86 1009.14 1009.46 1009.70 1009.94 1010.14 1010.30 1010.46 1010.66 1010.86 1010.94 1011.02 1011.22 1011.34 1011.46 1011.62 1011.78 1011.98 1012.10 1012.10 1012.22 1012.46 1012.66 1012.62 1012.74 1012.94 1013.02 1013.06 1013.34 1013.74 1014.06 1014.38 1014.70 1015.14 1015.46 1015.62 1015.90 1015.42 1014.94 1015.02 1015.14 1015.34 1015.42 1015.58 1015.78 1015.98 1016.14 1016.22 1016.26 1016.26 1016.34 1016.62 1016.90 1017.14 1017.30 1017.46 1017.54 1017.54 1017.62 1017.82 1017.78 1017.70 1017.98
1008.46 1008.82 1009.10 1009.42 1009.62 1009.82 1009.98 1010.14 1010.42 1010.58 1010.66 1010.82 1010.98 1011.14 1011.34 1011.50 1011.70 1011.74 1011.82 1011.98 1012.18 1012.34 1012.38 1012.38 1012.78 1013.06 1013.18 1013.34 1013.22 1013.46 1013.82 1014.14 1014.46 1014.82 1015.10 1015.46 1016.10 1015.50 1015.02 1014.90 1014.98 1015.26 1015.58 1015.74 1015.90 1016.14 1016.26 1016.42 1016.46 1016.54 1016.50 1016.38 1016.50 1016.74 1017.18 1017.50 1017.58 1017.50 1017.62 1017.62 1017.46 1017.74 1017.86
1008.22 1008.54 1008.86 1009.18 1009.34 1009.50 1009.74 1009.98 1010.26 1010.42 1010.62 1010.82 1010.86 1010.90 1011.18 1011.30 1011.42 1011.58 1011.70 1011.74 1012.02 1012.14 1012.18 1012.34 1012.82 1013.10 1013.30 1013.38 1013.54 1013.38 1013.50 1013.82 1014.14 1014.38 1014.70 1014.94 1015.10 1015.30 1015.42 1014.78 1014.74 1014.78 1015.10 1015.26 1015.34 1015.70 1016.18 1016.42 1016.54 1016.66 1016.66 1016.66 1016.78 1016.86 1016.94 1017.22 1017.42 1017.58 1017.70 1017.66 1017.74 1017.74 1017.86
1007.94 1008.26 1008.58 1008.74 1008.94 1009.26 1009.54 1009.86 1010.10 1010.30 1010.50 1010.50 1010.66 1010.90 1011.06 1011.18 1011.30 1011.38 1011.54 1011.62 1011.74 1011.86 1011.94 1012.30 1012.70 1013.06 1013.22 1013.42 1013.58 1013.66 1013.26 1013.46 1013.98 1014.14 1014.38 1014.54 1014.82 1015.34 1015.18 1014.50 1014.62 1014.70 1014.74 1015.14 1015.30 1015.26 1015.54 1016.06 1016.58 1016.82 1016.82 1016.86 1016.98 1017.10 1017.30 1017.42 1017.50 1017.46 1017.26 1017.58 1017.66 1017.74 1017.70
1007.66 1007.98 1008.18 1008.42 1008.62 1008.90 1009.30 1009.70 1009.86 1009.86 1009.98 1010.26 1010.58 1010.78 1010.86 1011.02 1011.06 1011.18 1011.30 1011.38 1011.50 1011.54 1011.62 1012.10 1012.58 1012.90 1013.14 1013.38 1013.62 1013.74 1013.34 1013.22 1013.38 1013.50 1013.94 1014.42 1014.90 1014.70 1014.18 1014.22 1014.38 1014.66 1014.62 1014.94 1015.10 1015.14 1015.30 1015.58 1016.06 1016.58 1016.78 1016.82 1016.86 1017.14 1017.50 1017.66 1017.66 1017.70 1017.58 1017.38 1017.50 1017.70 1017.50
1007.30 1007.58 1007.86 1008.18 1008.50 1008.70 1008.90 1009.10 1009.34 1009.54 1009.78 1010.02 1010.34 1010.50 1010.66 1010.82 1010.78 1010.86 1011.02 1011.14 1011.22 1011.38 1011.30 1011.86 1012.42 1012.74 1013.02 1013.30 1013.54 1013.78 1013.38 1013.22 1013.18 1013.30 1013.34 1013.38 1013.50 1013.62 1013.78 1013.86 1014.02 1014.18 1014.34 1014.58 1014.70 1014.90 1015.10 1015.38 1015.74 1016.14 1016.46 1016.66 1016.74 1016.82 1017.10 1017.30 1017.42 1017.38 1017.42 1017.38 1017.38 1017.38 1017.38
1006.94 1007.22 1007.58 1007.86 1008.22 1008.50 1008.70 1008.98 1009.22 1009.26 1009.50 1009.74 1009.82 1009.94 1010.10 1010.30 1010.50 1010.70 1010.70 1010.86 1011.06 1011.22 1011.18 1011.74 1012.18 1012.58 1012.94 1013.18 1013.54 1013.58 1013.30 1013.22 1013.10 1013.06 1013.18 1013.22 1013.30 1013.34 1013.42 1013.62 1013.82 1013.98 1014.06 1014.26 1014.50 1014.86 1014.94 1015.02 1015.46 1015.94 1016.30 1016.46 1016.54 1016.54 1016.66 1016.66 1016.82 1016.98 1017.02 1017.10 1017.14 1017.18 1017.34
1006.66 1007.02 1007.30 1007.66 1008.02 1008.22 1008.46 1008.70 1008.86 1008.86 1009.26 1009.38 1009.66 1009.90 1009.94 1009.90 1009.98 1010.18 1010.34 1010.54 1010.82 1011.02 1011.10 1011.58 1011.94 1012.38 1012.78 1013.22 1013.54 1013.02 1012.90 1012.86 1012.82 1012.86 1012.98 1012.98 1013.06 1013.14 1013.22 1013.34 1013.46 1013.66 1013.86 1014.02 1014.34 1014.78 1015.02 1015.14 1015.22 1015.66 1015.94 1016.14 1016.22 1016.26 1016.30 1016.38 1016.74 1016.98 1017.22 1017.46 1017.62 1017.82 1017.98
1006.30 1006.62 1006.90 1007.26 1007.58 1007.86 1008.02 1008.18 1008.42 1008.46 1008.82 1009.10 1009.38 1009.34 1009.46 1009.58 1009.62 1009.74 1010.02 1010.18 1010.38 1010.82 1010.78 1011.34 1011.82 1012.18 1012.62 1013.14 1012.98 1012.58 1012.38 1012.42 1012.58 1012.58 1012.66 1012.78 1012.78 1012.86 1012.98 1013.26 1013.42 1013.50 1013.74 1013.82 1014.22 1014.62 1014.94 1015.18 1015.18 1015.30 1015.62 1015.86 1016.06 1016.14 1016.10 1016.02 1016.58 1017.06 1017.54 1017.66 1017.86 1018.02 1018.22
1005.90 1006.30 1006.62 1006.82 1007.14 1007.58 1007.82 1007.94 1007.98 1008.14 1008.42 1008.54 1008.74 1008.90 1009.10 1009.42 1009.50 1009.42 1009.50 1009.74 1010.02 1010.54 1010.58 1011.18 1011.74 1012.06 1012.50 1012.90 1012.98 1012.26 1011.90 1011.82 1012.14 1012.26 1012.38 1012.54 1012.66 1012.66 1012.74 1013.10 1013.46 1013.54 1013.54 1013.70 1014.14 1014.50 1014.86 1015.02 1014.94 1014.90 1015.10 1015.42 1015.70 1015.86 1015.78 1015.74 1016.14 1016.62 1017.10 1017.38 1017.54 1017.82 1018.02
1005.58 1005.98 1006.30 1006.66 1006.98 1007.26 1007.46 1007.66 1007.82 1007.98 1008.14 1008.14 1008.26 1008.42 1008.58 1008.90 1009.30 1009.34 1009.38 1009.66 1009.90 1010.26 1010.42 1010.86 1011.66 1012.02 1012.30 1012.66 1012.70 1012.02 1011.42 1011.58 1011.90 1012.06 1012.10 1012.10 1012.34 1012.58 1012.54 1012.62 1013.18 1013.62 1013.82 1014.18 1014.26 1014.50 1014.74 1014.94 1014.74 1014.58 1014.74 1015.02 1015.26 1015.50 1015.18 1015.38 1015.54 1015.86 1016.30 1016.62 1016.66 1016.82 1016.90
1005.14 1005.46 1005.66 1006.14 1006.50 1006.82 1007.06 1007.42 1007.62 1007.90 1008.10 1008.06 1007.98 1008.02 1008.34 1008.54 1008.86 1009.14 1009.26 1009.50 1009.62 1009.90 1010.06 1010.42 1011.30 1011.82 1012.14 1012.38 1012.38 1012.18 1011.30 1011.26 1011.26 1011.54 1011.74 1011.90 1011.90 1011.98 1012.22 1012.34 1012.30 1013.02 1013.62 1014.02 1014.30 1014.46 1014.66 1014.86 1014.82 1014.54 1014.46 1014.66 1014.70 1014.82 1014.82 1015.18 1015.42 1015.82 1015.94 1016.10 1016.30 1016.34 1016.46
1004.46 1004.90 1005.22 1005.58 1006.14 1006.46 1006.74 1007.06 1007.46 1007.78 1007.98 1008.10 1008.10 1008.06 1008.18 1008.46 1008.62 1008.74 1008.98 1009.38 1009.50 1009.54 1009.62 1009.90 1010.66 1011.62 1011.90 1012.06 1012.10 1012.06 1011.34 1010.94 1010.98 1011.10 1011.58 1011.66 1011.70 1011.74 1011.78 1011.82 1011.86 1012.46 1013.30 1013.78 1014.14 1014.38 1014.54 1014.74 1014.90 1014.90 1014.42 1014.46 1014.74 1014.98 1014.98 1014.98 1015.14 1015.58 1015.90 1015.90 1015.94 1016.06 1016.02
1004.50 1004.74 1005.18 1005.42 1005.82 1006.18 1006.50 1006.86 1007.30 1007.66 1008.02 1008.14 1008.18 1008.18 1008.26 1008.50 1008.70 1008.90 1008.94 1009.06 1009.26 1009.46 1009.50 1010.02 1010.50 1011.18 1011.78 1011.86 1012.02 1011.98 1011.66 1011.22 1011.38 1011.30 1011.26 1011.42 1011.46 1011.42 1011.34 1011.54 1011.78 1012.54 1013.14 1013.58 1013.94 1014.22 1014.46 1014.62 1015.06 1014.86 1014.66 1014.78 1015.02 1015.22 1015.22 1015.10 1015.18 1015.30 1015.50 1015.50 1015.54 1015.58 1015.50
1004.50 1004.50 1005.02 1005.46 1005.74 1006.02 1006.38 1006.66 1007.06 1007.42 1007.66 1007.86 1008.02 1008.26 1008.50 1008.66 1008.86 1008.82 1009.02 1009.14 1009.38 1009.42 1009.46 1009.78 1010.42 1010.74 1011.34 1011.86 1011.98 1012.02 1011.82 1011.78 1011.74 1011.42 1011.30 1011.18 1011.18 1011.26 1011.30 1011.62 1012.06 1012.50 1012.98 1013.38 1013.78 1014.10 1014.34 1014.70 1014.54 1014.50 1014.82 1014.94 1015.22 1015.54 1015.38 1015.30 1015.34 1015.22 1015.14 1015.18 1015.22 1015.50 1015.74
Wind_Speed
9 9 8 6 5 4 6 7 6 6 8 9 9 9 9 9 8 7 7 7 7 7 7 7 7 6 6 5 5 6 5 5 6 5 3 2 3 3 6 3 3 3 3 4 5 5 2 5 1 6 3 2 2 1 1 1 1 1 1 2 3 3 2
7 4 5 4 4 4 5 6 7 7 7 8 9 9 9 9 8 8 8 7 7 7 7 7 7 7 7 6 6 5 6 6 5 5 4 3 5 7 4 3 2 2 1 2 3 3 3 4 2 3 3 3 2 3 1 1 2 2 1 1 2 3 2
7 6 5 5 5 5 6 5 4 6 6 7 8 9 9 9 9 9 8 9 9 8 7 7 7 7 7 7 6 6 5 5 4 5 5 4 4 1 1 1 2 1 2 3 3 3 2 3 3 1 1 1 3 2 1 1 3 1 2 2 2 1 3
10 9 8 8 8 8 8 9 8 7 6 6 7 7 8 9 9 9 8 8 8 8 8 7 7 7 7 7 7 7 6 7 5 5 5 5 3 2 2 2 2 3 3 3 2 2 3 2 3 2 0 0 1 2 2 1 2 1 1 2 2 1 3
12 9 10 10 10 10 10 9 8 7 8 8 8 8 9 9 8 8 8 8 7 8 9 7 7 7 7 7 7 7 7 7 6 6 5 4 4 3 4 3 2 3 4 5 2 2 2 2 2 2 2 1 1 1 4 1 1 0 1 2 3 3 2
12 11 10 10 10 9 8 8 8 8 8 8 8 8 8 10 9 9 9 9 8 9 9 8 8 8 7 6 6 7 6 7 7 6 5 5 5 5 4 3 2 2 6 6 2 3 2 2 2 3 2 1 1 1 3 3 3 3 2 3 3 1 2
12 12 11 9 9 7 7 7 7 8 8 9 8 9 8 10 10 10 10 9 9 8 8 8 7 7 7 6 6 6 7 6 6 7 6 5 5 5 4 4 5 6 6 2 3 3 3 3 3 3 2 2 2 2 1 3 2 3 4 3 2 2 2
12 12 11 9 8 8 7 7 8 8 8 8 9 10 11 11 11 10 10 10 9 8 8 8 7 7 7 5 5 6 6 6 7 6 6 7 6 6 6 5 5 5 5 3 3 4 3 3 2 2 3 3 2 1 1 2 3 1 1 3 3 2 2
11 10 10 9 8 8 8 8 8 8 8 7 8 8 10 10 10 10 10 10 10 9 9 9 8 7 8 7 6 6 7 5 6 8 6 7 7 7 7 6 5 5 5 4 5 4 4 4 4 3 3 2 1 1 1 1 1 3 1 1 4 2 2
12 12 10 10 10 9 9 8 7 8 8 7 6 7 9 9 9 9 9 9 10 9 9 8 8 8 8 8 7 8 8 7 6 7 7 6 7 7 6 8 7 6 6 6 6 5 5 4 4 3 2 3 1 2 2 2 3 1 3 1 1 2 2
12 12 11 10 9 9 9 8 7 7 8 8 7 7 9 10 10 10 9 9 9 9 9 8 8 8 8 7 8 8 7 7 7 7 7 7 7 7 7 7 6 6 5 6 6 5 4 3 3 3 3 2 2 3 1 2 0 1 1 1 1 0 2
12 11 11 11 10 9 10 9 9 8 9 9 9 8 9 10 10 10 9 9 9 9 9 9 10 9 9 7 8 7 7 8 8 9 9 8 7 7 7 8 7 6 5 5 5 5 4 3 3 3 3 3 2 2 2 2 4 3 3 1 1 1 3
12 12 11 11 10 11 10 10 9 10 10 9 9 10 9 10 10 10 9 9 9 9 9 10 10 10 9 8 8 7 8 10 10 10 10 9 8 9 9 9 8 7 5 5 6 5 5 4 4 4 4 4 3 3 2 3 4 2 1 2 1 2 1
13 12 11 11 11 11 10 10 10 10 10 10 10 10 11 10 10 10 10 10 10 10 10 10 9 9 9 9 8 9 9 10 11 10 9 10 9 9 9 9 9 8 7 7 6 6 5 5 5 4 4 4 4 3 3 3 4 4 2 1 2 2 2
12 12 12 12 12 11 10 10 10 10 11 11 11 11 12 10 10 11 10 11 11 10 10 10 10 9 9 9 10 8 9 11 11 10 10 10 10 8 9 10 10 9 8 8 6 6 6 6 6 6 6 6 5 4 4 4 4 4 4 3 2 2 3
12 13 13 12 12 11 11 11 11 12 12 11 11 11 11 11 11 11 11 10 11 10 10 10 9 10 10 11 11 11 10 11 11 11 10 10 11 10 10 10 10 9 7 8 8 7 7 7 7 7 7 5 5 5 4 4 4 5 5 3 1 3 0
13 13 13 12 12 12 11 11 11 12 12 11 11 11 11 12 11 11 11 11 11 11 11 10 10 10 11 11 11 12 11 11 11 11 11 11 11 11 10 10 9 10 10 10 10 9 8 8 8 7 7 6 5 5 5 4 5 4 3 5 2 3 1
13 13 13 12 13 13 13 12 11 12 12 12 11 11 11 11 11 12 11 12 12 11 11 11 11 11 10 9 10 10 11 11 11 12 12 11 11 11 11 10 10 10 10 10 9 9 8 9 8 7 6 6 6 5 5 5 5 4 4 4 3 1 1
14 14 13 13 14 13 13 13 12 12 12 13 12 12 11 10 10 11 11 11 11 11 11 11 11 11 11 10 10 10 10 11 11 11 11 11 11 11 11 11 11 11 10 10 9 8 8 9 8 7 7 7 6 5 5 5 5 4 5 4 3 3 3
13 13 13 13 12 12 13 13 13 12 12 12 12 11 11 12 11 11 11 11 11 11 11 11 11 11 11 12 11 10 10 10 10 9 10 11 10 10 11 10 9 9 9 10 9 9 8 8 8 9 8 7 7 6 5 5 5 4 4 4 3 3 3
13 13 13 13 13 13 13 13 13 12 12 13 12 12 12 12 11 10 11 11 11 10 10 10 10 10 10 10 9 10 10 9 9 8 8 8 8 9 9 10 9 9 9 9 9 8 8 8 7 8 8 7 7 6 6 5 5 5 5 4 4 3 2
12 12 13 13 13 13 13 12 12 13 12 12 11 12 12 11 11 12 11 11 10 9 9 9 8 9 10 10 10 10 10 10 9 8 6 7 9 10 8 8 8 9 9 9 6 5 4 3 6 8 7 7 7 7 6 6 5 5 5 4 4 3 3
12 12 13 13 13 12 12 12 12 12 13 12 11 11 12 11 11 11 11 11 10 8 8 8 7 8 7 8 10 9 9 9 8 6 5 5 8 11 8 7 7 10 6 3 1 1 2 2 4 5 5 7 7 7 7 6 5 5 5 5 5 3 3
11 13 12 11 11 12 12 11 11 11 11 11 11 11 10 11 11 10 11 10 10 9 8 7 9 9 7 5 6 9 9 9 9 9 7 6 9 10 8 8 8 7 5 4 5 5 4 5 7 5 3 5 7 7 7 6 6 6 5 5 4 4 3
12 12 12 12 12 12 11 11 10 11 10 11 10 11 11 10 10 10 9 10 10 10 9 9 13 12 10 10 6 7 9 9 9 9 9 9 7 5 9 8 7 6 7 8 8 8 7 7 7 6 6 6 4 3 5 3 4 6 5 5 4 4 3
13 13 13 13 12 11 11 11 11 11 11 10 9 10 10 10 10 10 10 11 10 10 9 11 14 13 13 12 11 9 8 9 9 9 8 8 7 8 10 8 8 6 6 9 8 8 8 8 7 5 5 6 4 4 3 3 5 5 3 5 4 3 3
13 12 12 11 11 12 12 12 11 10 10 10 10 10 10 11 10 10 10 10 10 9 10 12 14 14 13 13 12 10 9 9 9 10 11 10 10 12 10 8 8 8 7 8 8 9 8 9 9 8 7 7 8 7 3 1 4 3 4 3 3 4 2
13 13 13 12 11 11 11 10 11 10 10 10 12 12 12 11 10 10 10 9 9 9 8 14 14 14 13 13 13 9 9 8 8 8 8 8 8 8 8 8 8 8 8 8 8 10 9 10 10 10 10 10 10 9 10 9 8 7 6 5 4 3 2
12 12 12 12 12 12 12 11 11 10 10 10 10 10 11 11 11 11 11 10 9 10 6 15 14 14 13 13 12 8 9 10 9 8 8 8 8 8 8 8 8 9 8 9 10 12 11 10 11 11 11 10 10 10 9 10 9 9 6 6 5 2 2
13 12 12 12 11 11 11 11 10 10 10 11 11 11 11 11 11 11 11 10 10 9 7 11 14 13 13 13 10 9 10 10 9 9 8 9 9 8 8 9 9 8 8 9 11 15 13 11 11 12 12 11 10 10 9 8 9 11 5 6 8 9 7
13 13 12 12 12 10 10 9 10 9 10 10 11 12 11 10 10 10 11 11 10 9 8 11 15 14 13 15 13 10 10 10 10 9 9 8 8 8 9 9 8 9 9 8 14 16 16 12 12 12 12 12 11 11 10 8 6 5 5 4 4 4 3
13 13 12 12 11 11 10 10 9 9 9 9 9 9 10 10 10 10 11 11 9 10 8 10 15 14 14 15 12 10 10 10 10 9 9 9 8 8 8 9 10 9 8 5 16 16 16 14 13 12 12 12 11 12 10 10 9 8 7 6 5 4 3
12 12 12 11 10 10 9 9 10 10 9 9 9 9 10 9 10 9 9 11 8 10 10 8 12 14 15 15 16 10 10 9 10 10 9 9 8 9 9 8 11 14 9 6 13 14 16 16 14 12 11 11 11 11 9 9 10 9 8 9 9 9 9
14 13 12 12 11 11 10 10 10 10 10 9 8 9 10 9 9 10 9 10 10 10 10 9 11 16 15 16 18 15 9 10 9 9 9 9 9 9 8 9 8 15 16 12 11 14 15 17 15 12 12 11 10 4 5 9 8 7 9 8 8 8 8
13 10 9 10 11 11 10 10 10 10 8 8 10 10 10 9 8 9 10 10 10 10 9 9 9 14 16 17 18 19 10 10 8 9 8 8 8 8 8 7 7 12 18 15 12 13 15 15 16 10 11 9 1 5 5 8 8 7 8 8 8 9 9
10 9 9 10 11 10 10 10 10 9 9 9 10 10 11 10 10 10 10 10 9 9 9 7 11 12 15 16 17 18 14 7 6 4 6 7 6 6 5 5 3 14 14 15 13 13 12 14 10 10 13 7 1 4 3 8 8 9 9 10 10 11 9
8 9 10 9 9 9 10 9 10 9 11 10 10 10 9 10 10 11 11 9 8 9 9 9 10 12 11 14 13 15 16 10 1 3 4 6 5 5 4 2 4 12 11 12 12 13 12 11 10 13 13 13 6 1 5 7 8 10 10 10 11 10 9
Wind_Direction
190 186 188 173 170 183 194 198 198 200 212 210 207 210 208 211 212 211 217 218 217 211 207 207 203 199 210 199 197 196 208 216 220 235 185 172 164 258 236 225 237 272 299 298 306 318 309 172 213 278 148 155 224 136 318 316 305 77 200 278 225 171 212
190 174 166 172 174 195 209 199 204 199 204 213 213 212 214 213 208 209 210 211 215 216 213 214 207 204 207 199 189 196 206 210 218 229 225 156 233 226 175 206 243 254 245 275 299 285 302 310 162 158 149 130 194 141 352 297 302 233 243 268 343 299 135
179 182 181 178 185 185 207 208 212 210 205 204 211 214 217 219 213 211 211 213 211 215 216 217 207 202 205 207 193 202 207 218 222 235 234 188 223 335 236 35 256 229 263 244 246 255 258 282 301 313 183 199 176 159 189 290 267 263 203 127 233 347 28
186 182 187 185 190 192 205 200 200 203 205 205 207 211 218 219 218 216 213 211 214 215 216 213 208 203 200 203 198 195 200 212 216 225 228 226 220 201 164 193 215 244 275 277 270 256 286 270 267 251 259 174 191 173 179 110 267 244 150 159 124 91 107
190 191 194 194 195 199 204 204 201 200 203 200 200 204 207 211 214 218 222 222 214 217 216 214 212 207 199 199 200 198 200 204 214 221 228 224 208 208 214 217 232 278 278 256 220 252 258 270 280 304 305 325 163 203 108 225 239 89 358 70 89 124 130
198 196 196 201 199 203 204 207 203 205 198 202 204 207 204 204 206 209 213 212 211 215 218 215 215 214 205 198 198 199 201 203 207 212 214 219 208 219 216 207 196 202 239 248 252 239 237 265 260 268 260 233 273 214 164 174 179 152 169 144 148 137 156
204 203 204 206 204 206 207 211 214 210 206 208 199 206 203 202 205 207 211 214 216 214 217 217 214 211 207 205 194 202 205 207 208 208 213 207 210 210 204 207 192 211 235 261 253 248 235 233 238 260 266 239 259 268 176 178 147 168 159 152 135 131 89
206 208 210 210 209 207 206 208 210 212 214 205 200 196 201 202 202 203 205 209 210 213 211 212 208 207 203 200 201 200 201 202 202 202 206 203 203 199 199 210 204 219 224 214 225 233 226 240 261 263 273 264 194 233 247 209 143 85 137 127 100 96 65
209 209 211 212 214 211 209 210 209 212 213 211 207 200 199 201 203 205 203 205 206 207 207 204 202 202 196 195 197 201 202 201 202 199 201 199 203 194 195 201 216 213 213 214 214 216 224 217 224 232 242 245 263 206 149 127 271 130 205 86 120 69 14
206 209 210 211 211 209 210 209 212 210 212 212 208 204 190 194 204 205 206 203 204 207 204 198 200 198 196 191 195 196 198 195 200 196 198 199 194 196 196 199 208 206 203 210 212 212 217 218 224 237 255 271 300 264 244 196 156 201 134 324 340 126 32
204 207 210 211 209 211 209 211 208 208 210 208 214 205 200 192 193 199 203 200 200 203 200 193 196 195 192 196 197 197 195 190 195 191 195 197 194 198 201 203 213 217 207 208 212 214 217 221 234 245 255 268 270 275 295 288 68 273 133 152 70 7 68
203 207 209 211 209 211 211 209 208 207 210 208 207 206 204 202 195 194 202 199 197 199 199 193 192 193 191 195 196 195 196 195 196 194 192 193 191 197 202 205 211 221 213 216 220 214 208 216 231 238 235 257 241 255 279 274 271 116 335 343 56 332 33
203 207 207 204 206 210 210 209 208 210 212 208 208 207 207 204 196 196 199 200 196 196 196 195 195 193 190 197 194 198 195 199 202 200 195 188 192 197 199 200 203 209 201 212 214 215 205 211 222 234 222 225 225 235 253 273 287 310 114 289 324 314 348
202 205 204 202 206 208 210 211 210 212 211 212 208 206 208 205 201 197 198 199 197 196 195 195 193 195 194 195 198 202 199 203 208 205 200 189 194 198 198 199 202 199 198 209 210 205 208 203 208 226 230 222 224 204 229 240 262 263 186 171 245 280 333
198 200 200 202 207 209 210 209 209 212 213 211 209 208 207 203 204 200 201 198 200 197 198 196 194 195 196 197 201 204 206 206 214 212 207 196 197 206 206 206 204 202 198 204 209 217 202 200 201 212 217 225 217 200 206 239 236 258 269 201 235 201 223
198 200 201 205 207 210 209 209 209 213 212 208 208 211 211 203 202 202 200 201 200 200 199 198 196 199 201 202 202 202 208 209 211 214 209 207 204 206 210 210 210 203 195 201 205 215 208 200 204 212 217 216 220 212 206 228 261 262 267 271 256 262 272
197 198 203 207 210 211 211 208 209 212 210 209 203 208 213 208 205 205 203 202 199 198 196 194 197 204 207 208 208 205 206 210 212 215 214 210 212 210 210 212 214 206 197 199 203 205 206 204 206 215 214 209 217 216 218 218 235 268 272 276 255 300 4
196 201 204 207 210 212 211 210 209 210 207 208 207 205 211 213 208 208 206 206 204 200 197 194 196 198 205 213 217 216 211 211 213 215 214 216 217 218 212 213 214 210 204 205 206 207 205 209 210 214 215 211 214 210 210 219 227 231 256 266 286 280 308
194 197 200 205 208 208 210 210 206 206 207 205 205 206 206 208 210 210 208 208 208 205 203 201 199 200 204 207 215 218 217 215 216 218 218 221 221 218 216 212 217 212 204 210 209 208 207 209 213 214 215 214 215 207 205 214 226 232 248 266 269 260 212
193 196 200 204 205 205 207 209 206 202 206 207 204 205 206 207 207 212 211 209 209 207 204 205 206 202 209 213 210 211 212 213 214 220 227 227 225 219 218 218 216 209 209 212 214 210 208 209 211 212 212 214 215 207 206 216 220 228 237 253 242 245 264
193 197 201 202 202 205 207 207 206 202 204 209 208 205 204 205 205 211 215 212 210 207 206 205 207 207 207 207 206 207 208 211 213 217 235 250 241 225 220 219 217 213 214 215 219 219 218 213 208 212 210 212 207 205 210 210 210 223 224 224 251 239 204
194 196 199 199 203 206 208 206 206 207 206 206 209 209 207 207 206 209 211 213 210 203 212 210 208 207 205 204 203 203 205 206 208 210 207 226 248 243 225 224 225 221 218 228 230 257 265 240 212 210 212 207 203 201 211 218 217 229 221 223 222 212 228
192 194 197 198 202 204 205 205 207 208 210 209 206 208 209 209 206 207 207 207 209 204 208 212 200 206 223 210 198 198 197 199 195 193 206 212 239 239 224 224 224 232 233 198 162 224 342 332 288 277 219 198 197 200 208 218 226 222 225 218 224 219 225
191 197 197 199 200 202 203 204 206 209 208 207 207 204 209 208 208 208 208 205 202 203 206 205 163 182 203 270 233 194 197 194 196 196 198 198 226 233 224 224 222 194 186 196 207 197 218 218 231 256 276 205 205 208 208 217 226 227 225 228 216 215 235
197 200 197 200 199 200 200 202 205 206 207 206 207 207 206 207 206 206 208 206 201 202 208 167 165 184 195 201 223 218 196 197 194 198 205 207 214 230 242 220 218 206 207 212 218 194 198 211 217 221 195 172 190 257 307 288 235 219 225 233 220 227 226
192 198 201 202 200 198 198 202 205 205 206 206 206 208 207 207 207 208 208 209 204 199 214 156 176 183 192 197 203 226 215 196 193 200 198 203 208 220 232 215 210 205 198 194 214 215 204 191 196 210 202 182 198 209 247 322 355 342 230 227 241 223 240
185 189 194 196 198 200 196 201 205 210 204 201 205 207 209 213 208 208 210 214 210 205 215 164 181 184 189 192 196 206 227 214 206 203 199 204 207 216 217 212 207 201 202 189 208 212 205 198 189 189 195 200 206 198 203 225 261 285 322 260 228 235 173
185 185 186 187 191 194 198 198 200 200 204 205 207 209 207 211 211 212 209 214 216 210 209 155 180 184 189 187 185 198 221 224 214 211 210 210 214 217 215 215 217 215 205 201 201 205 203 201 192 194 200 203 209 206 206 208 210 211 209 224 239 237 228
184 186 184 182 184 187 190 193 194 196 198 204 209 209 208 210 208 211 213 209 217 218 173 159 172 184 186 187 170 190 211 220 221 218 215 215 218 220 219 217 216 219 216 211 187 187 209 207 202 200 202 203 209 208 206 206 194 202 212 216 224 237 62
179 182 184 184 187 188 190 192 192 190 195 197 199 205 211 211 209 212 211 210 213 218 190 171 175 186 186 175 172 198 202 210 218 219 218 215 216 220 221 218 218 220 216 219 172 181 201 218 210 209 205 206 208 211 212 180 162 182 155 97 87 91 93
174 179 181 186 187 189 193 194 194 192 196 195 199 202 201 211 208 209 213 212 212 213 208 169 183 190 182 173 190 194 198 203 210 215 216 216 220 218 219 206 225 223 219 217 161 184 192 202 215 212 212 210 214 217 218 205 174 162 102 78 75 72 91
173 177 182 187 186 190 195 196 195 192 197 199 198 198 198 200 208 209 209 214 201 208 213 171 184 186 180 180 195 208 202 201 204 209 214 215 217 227 218 187 199 226 235 179 163 183 188 198 215 220 217 221 223 225 221 211 206 193 187 203 196 182 194
172 175 179 179 184 192 193 197 195 194 194 200 198 198 196 197 203 206 205 211 196 203 216 174 178 183 181 184 201 218 204 204 205 204 212 218 214 217 223 215 185 203 224 149 175 179 190 199 215 222 222 225 227 229 218 223 231 230 214 207 215 206 220
168 172 173 174 179 184 190 194 192 193 193 200 202 196 191 191 196 201 205 210 213 205 212 185 168 179 183 186 200 223 209 209 207 206 208 214 224 222 210 218 216 182 199 184 175 184 190 202 217 229 229 230 233 241 238 231 214 202 235 226 220 218 217
167 167 168 164 168 174 183 186 189 190 194 199 201 196 190 191 199 200 204 208 211 209 208 209 158 181 186 190 199 216 231 205 216 211 212 219 222 228 231 218 242 169 182 188 185 183 192 198 212 229 235 243 324 108 234 237 239 211 226 232 229 226 227
159 162 166 166 165 167 169 179 184 188 195 199 198 199 195 191 197 199 205 205 204 211 197 192 155 173 189 192 199 211 236 251 79 242 222 222 225 234 239 236 161 137 170 180 188 191 193 201 200 222 237 257 294 174 221 237 245 236 225 229 236 239 235
170 159 157 159 162 163 168 173 180 190 203 202 195 195 193 194 195 196 197 193 195 202 195 190 168 169 174 192 198 207 217 237 265 241 238 225 227 231 247 338 67 137 156 175 185 194 198 196 212 214 223 235 245 202 244 238 240 245 239 237 237 237 236